User: anonymous   Login
Location: Irma
(52.9170°N, 111.2330°W)
Time: 04:46:04
(UTC-06:00)
Language:

Cosmos 1633 Rocket - Orbit

View from above orbital plane
View from above orbital plane
View from above satellite
View from above satellite

Ground track
Ground track

The orbit data is extracted from the following two-line orbital elements,

1 15593U 85020B   17142.91949321 +.00000090 +00000-0 +78350-5 0  9998
2 15593 082.5369 286.2944 0013029 119.8116 034.3032 14.84273796719457
Epoch (UTC): 22 May 2017 22:04:04
Eccentricity: 0.0013029
inclination: 82.5369°
perigee height: 607 km
apogee height: 625 km
right ascension of ascending node: 286.2944°
argument of perigee: 119.8116°
revolutions per day: 14.84273796
mean anomaly at epoch: 34.3032°
orbit number at epoch: 71945

The dashed part of the orbit path shows where the satellite is in the earth's shadow,  

DLR